User: anonymous   Login
Location: Unspecified
(0.0000°N, 0.0000°E)
Time: 12:24:57
(UTC+02:00)
Language:

ARIANE 5 R/B - Orbit

View from above orbital plane
View from above orbital plane
View from above satellite
View from above satellite

Ground track
Ground track

The orbit data is extracted from the following two-line orbital elements,

1 28379U 04027B   16271.09397326  .00000009  00000-0  20991-3 0  9991
2 28379   7.2860  54.4407 7286675 261.1852  18.0784  2.07925301 92664
Epoch (UTC): 27 September 2016 02:15:19
Eccentricity: 0.7286675
inclination: 7.2860°
perigee height: 657 km
apogee height: 38445 km
right ascension of ascending node: 54.4407°
argument of perigee: 261.1852°
revolutions per day: 2.07925301
mean anomaly at epoch: 18.0784°
orbit number at epoch: 9266

The dashed part of the orbit path shows where the satellite is in the earth's shadow,  

DLR